Starlink 34341

operational
NORAD ID: 64161 Int'l Des: 2025-112 Owner: SPXS Country: US Constellation: starlink
LEOCIRCULARRETROGRADESSO

About Starlink 34341

Description loading...

Live Position

Loading 3D Globe...

Upcoming Passes

Altitude History

Altitude vs Time

uPlot chart will show altitude changes over time

Two-Line Element Set

1 64161U 25112R 25312.55962306 .00013054 00000-0 90721-3 0 9993
2 64161 97.6055 2.1516 0000471 183.8562 176.2661 15.05650955 25087
Epoch: Nov 8, 2025 • Age: 63 hours

Current Status

Altitude 552.2 km
Velocity 7.59 km/s
Sub-Earth Point 25.35°N, 73°E
Launch Date May 27, 2025
Age 0.4 years
Type internet

Technical Details

Classification Payload
Mass 575.00 kg
Dry Mass 530.00 kg
Total Mass 575.00 kg
Length 0.30 m
Diameter 4.10 m
Span 29.00 m
Shape Box + pan
Manufacturer SPXS
Bus Type Starlink V2MO
Phase Status In Orbit
Owner/State SPXS/US

Large Constellations

Loading constellations...